Location: Bercimuel
(41.3983°N, 3.5711°W)
Time: 19:56:58
(UTC+00:00)

Cosmos 1354 Rocket - Pass Details

Date: 15 May 2026
Orbit: 761 x 778 km, 74.0° (Epoch: 8 June)

Event Time Altitude Azimuth Distance (km) Brightness Sun altitude
Rises 21:59:27 0° 345° (NNW) 3,241 8.5 -22.4°
Reaches altitude 10° 22:01:55 10° 351° (N) 2,309 7.4 -22.6°
Maximum altitude 22:07:00 49° 66° (ENE) 974 4.4 -23.1°
Enters shadow 22:07:46 46° 94° (E) 1,024 4.3 -23.2°
